Voltar ao catálogo

STARLINK-2099

AtivoComunicaçõesVLEO
NORAD 47379·PAYLOAD·🇺🇸 United States

Lançado Jan 20, 2021 de Cape Canaveral Space Force Station

Loading…

Próximas Passagens (próximas 24 horas)

TLE

AtualizadoSource: CelesTrak SupGP

Época: Sep 14, 2026, 21:21 UTC

1 47379C 21005AG  26257.89006944  .00020068  00000+0  64530-3 0  2573
2 47379  53.1601 213.0440 0001459  91.6371 342.0342 15.31693269    12

Acompanhe STARLINK-2099 em tempo real com AllMySat

Download on the App Store